Terminal Aerodrome Forecast
Issued by NWS

Home | Current Version | Previous Version | Text Only | Print | Product List | Glossary On
Versions: 1 2 3 4 5 6 7 8 9 10 11 12 13 14 15 16 17 18 19 20 21
299
FTUS43 KGRR 220541
TAFAZO
TAF
KAZO 220541Z 2206/2306 33008KT P6SM VCSH BKN035
     FM222300 24007KT P6SM FEW080 BKN150=

USA.gov is the U.S. government's official web portal to all federal, state and local government web resources and services.